User: anonymous   Login
Location: Newark
(45.6000°N, 12.8833°E)
Time: 00:17:42
(UTC+00:00)
Language:

Vanguard 2 - Orbit

View from above orbital plane
View from above orbital plane
View from above satellite
View from above satellite

Ground track
Ground track

The orbit data is extracted from the following two-line orbital elements,

1    11U 59001A   19315.08771815  .00000195  00000-0  10887-3 0  9995
2    11  32.8635 158.9888 1466735  93.1387 283.7432 11.85625192590688
Epoch (UTC): 11 November 2019 02:06:18
Eccentricity: 0.1466735
inclination: 32.8635°
perigee height: 554 km
apogee height: 2937 km
right ascension of ascending node: 158.9888°
argument of perigee: 93.1387°
revolutions per day: 11.85625192
mean anomaly at epoch: 283.7432°
orbit number at epoch: 59068

The dashed part of the orbit path shows where the satellite is in the earth's shadow,  

DLR